Home > Weather > Esslingen > Past weeks

Flag for Germany Weather for the Past 2 Weeks in Esslingen, Baden-Württemberg, Germany

Now
34 °F

Sunny.


Feels Like: 34 °F
Forecast: 37 / 49 °F
Wind: 2 mph from Northeast

Location: Stuttgart-Echterdingen

Current Time: Feb 6, 2016 at 9:29:22 AM

Latest Report: Feb 6, 2016 at 8:50 AM


Visibility: 10 mi

Pressure: 30.09 "Hg

Humidity: 100%

Dew point: 34 °F

Location of EsslingenLocation

Historic Weather in Esslingen — Graph

°F

Esslingen Temperature Yesterday

Maximum temperature yesterday: 50 °F (at 2:50 PM)
Minimum temperature yesterday: 39 °F (at 3:50 AM)
Average temperature yesterday: 43 °F

High & Low Weather Summary for the Past Weeks

 TemperatureHumidityPressure
High61 °F (Jan 26, 2:20 PM)100% (Jan 22, 10:20 AM)30.63 "Hg (Jan 22, 10:20 AM)
Low16 °F (Jan 22, 8:20 AM)48% (Jan 26, 2:20 PM)29.89 "Hg (Jan 30, 4:50 PM)
Average42 °F83%30.25 "Hg
* Reported Jan 22 8:20 AM — Feb 6 8:20 AM, Esslingen, Weather by CustomWeather, © 2016

Note: Actual official high and low records may vary slightly from our data, if they occured in-between our weather recording intervals... More about our weather records

Advertising

Esslingen Weather History for the Previous 24 Hours

 ConditionsComfort  
Time TempWeatherWind HumidityBarometerVisibility
8:20 AM
Sat, Feb 6
34 °FSunny.2 mph93%30.09 "Hg10 mi
7:50 AM34 °FSunny.2 mph93%30.09 "Hg10 mi
7:20 AM37 °FFog.2 mph100%30.09 "HgN/A
6:50 AM34 °FClear.1 mph93%30.09 "Hg10 mi
6:20 AM32 °FClear.2 mph100%30.09 "Hg10 mi
5:50 AM34 °FClear.2 mph100%30.09 "Hg10 mi
5:20 AM34 °FClear.1 mph93%30.09 "Hg10 mi
4:50 AM32 °FPassing clouds.3 mph100%30.12 "HgN/A
4:20 AM32 °FLight fog.3 mph100%30.12 "HgN/A
3:50 AM34 °FClear.2 mph100%30.12 "Hg10 mi
3:20 AM36 °FClear.2 mph93%30.12 "HgN/A
2:50 AM37 °FClear.1 mph93%30.15 "Hg10 mi
2:20 AM39 °FClear.2 mph93%30.15 "Hg10 mi
1:20 AM36 °FClear.2 mph100%30.18 "Hg10 mi
12:50 AM37 °FClear.1 mph93%30.18 "Hg10 mi
12:20 AM37 °FClear.2 mph93%30.18 "Hg10 mi
11:50 PM
Fri, Feb 5
39 °FClear.2 mph93%30.21 "Hg10 mi
11:20 PM39 °FPassing clouds.3 mph87%30.21 "HgN/A
10:50 PM39 °FClear.2 mph87%30.21 "Hg10 mi
10:20 PM39 °FClear.5 mph93%30.21 "Hg10 mi
9:50 PM41 °FPassing clouds.5 mph87%30.21 "HgN/A
9:20 PM41 °FClear.3 mph87%30.24 "Hg10 mi
8:50 PM43 °FClear.2 mph87%30.24 "Hg10 mi
8:20 PM43 °FClear.5 mph87%30.24 "Hg10 mi
7:50 PM43 °FPassing clouds.3 mph87%30.24 "HgN/A
7:20 PM45 °FPassing clouds.2 mph81%30.27 "HgN/A
6:50 PM46 °FPartly cloudy.1 mph82%30.27 "HgN/A
6:20 PM45 °FPassing clouds.1 mph81%30.27 "HgN/A
5:50 PM46 °FPassing clouds.6 mph76%30.27 "HgN/A
5:20 PM46 °FScattered clouds.7 mph76%30.27 "HgN/A
4:50 PM48 °FScattered clouds.8 mph76%30.27 "HgN/A
4:20 PM50 °FScattered clouds.9 mph71%30.27 "HgN/A
3:50 PM50 °FScattered clouds.12 mph71%30.27 "HgN/A
3:20 PM50 °FScattered clouds.8 mph71%30.27 "HgN/A
2:50 PM50 °FScattered clouds.8 mph71%30.27 "HgN/A
2:20 PM48 °FScattered clouds.7 mph76%30.30 "HgN/A
1:50 PM48 °FPartly sunny.7 mph76%30.30 "HgN/A
1:20 PM48 °FBroken clouds.6 mph76%30.30 "HgN/A
12:50 PM48 °FPassing clouds.6 mph76%30.33 "HgN/A
12:20 PM46 °FPassing clouds.6 mph76%30.33 "HgN/A
11:50 AM45 °FPassing clouds.5 mph81%30.36 "HgN/A
11:20 AM45 °FPassing clouds.6 mph81%30.36 "HgN/A
10:50 AM43 °FPassing clouds.5 mph81%30.36 "HgN/A
10:20 AM41 °FPassing clouds.3 mph87%30.36 "HgN/A
9:50 AM41 °FBroken clouds.5 mph87%30.36 "HgN/A
9:20 AM41 °FBroken clouds.6 mph87%30.36 "HgN/A
Weather by CustomWeather, © 2016

See weather overviewHow to use our weather pages